TimeMST,TemperatureF,Dew PointF,Humidity,Sea Level PressureIn,VisibilityMPH,Wind Direction,Wind SpeedMPH,Gust SpeedMPH,PrecipitationIn,Events,Conditions,WindDirDegrees,DateUTC
12:53 AM,-9.0,-15.0,75,30.22,10.0,West,3.5,-,N/A,,Clear,280,2012-12-31 07:53:00
1:53 AM,-7.1,-13.0,75,30.21,10.0,NNW,6.9,-,N/A,,Clear,340,2012-12-31 08:53:00
2:53 AM,-8.0,-13.0,79,30.22,10.0,WSW,3.5,-,N/A,,Clear,250,2012-12-31 09:53:00
3:53 AM,-6.0,-11.9,75,30.23,10.0,Calm,Calm,-,N/A,,Clear,0,2012-12-31 10:53:00
4:53 AM,-9.0,-14.1,79,30.25,10.0,Calm,Calm,-,N/A,,Clear,0,2012-12-31 11:53:00
5:53 AM,-9.0,-15.0,75,30.27,10.0,Calm,Calm,-,N/A,,Clear,0,2012-12-31 12:53:00
6:53 AM,-6.0,-11.0,79,30.27,10.0,West,9.2,-,N/A,,Clear,260,2012-12-31 13:53:00
7:53 AM,-7.1,-11.9,79,30.29,10.0,West,8.1,-,N/A,,Clear,280,2012-12-31 14:53:00
8:53 AM,3.0,-2.9,76,30.29,10.0,West,8.1,-,N/A,,Clear,260,2012-12-31 15:53:00
9:53 AM,8.1,1.9,76,30.27,10.0,WSW,6.9,-,N/A,,Clear,240,2012-12-31 16:53:00
10:53 AM,12.0,3.9,70,30.27,10.0,WSW,9.2,-,N/A,,Clear,240,2012-12-31 17:53:00
11:53 AM,15.1,5.0,64,30.22,10.0,WSW,11.5,-,N/A,,Clear,250,2012-12-31 18:53:00
12:53 PM,18.0,7.0,62,30.20,10.0,SW,10.4,-,N/A,,Clear,230,2012-12-31 19:53:00
1:53 PM,19.9,8.1,60,30.17,10.0,SW,11.5,-,N/A,,Clear,220,2012-12-31 20:53:00
2:53 PM,19.9,8.1,60,30.19,10.0,SW,9.2,-,N/A,,Clear,220,2012-12-31 21:53:00
3:53 PM,19.0,7.0,59,30.19,10.0,SW,6.9,-,N/A,,Clear,230,2012-12-31 22:53:00
4:53 PM,12.0,3.9,70,30.24,10.0,WSW,6.9,-,N/A,,Clear,250,2012-12-31 23:53:00
5:53 PM,8.1,1.0,73,30.27,10.0,West,10.4,-,N/A,,Clear,260,2013-01-01 00:53:00
6:53 PM,9.0,1.9,73,30.25,10.0,WSW,8.1,-,N/A,,Clear,240,2013-01-01 01:53:00
7:53 PM,10.0,3.0,73,30.24,10.0,WSW,9.2,-,N/A,,Clear,250,2013-01-01 02:53:00
8:53 PM,9.0,1.9,73,30.23,10.0,WSW,10.4,-,N/A,,Clear,240,2013-01-01 03:53:00
9:53 PM,9.0,1.9,73,30.25,10.0,WNW,8.1,-,N/A,,Clear,300,2013-01-01 04:53:00
10:53 PM,10.9,1.9,67,30.23,10.0,WSW,15.0,-,N/A,,Overcast,250,2013-01-01 05:53:00
11:53 PM,9.0,1.9,73,30.24,10.0,North,-9999.0,-,N/A,,Overcast,0,2013-01-01 06:53:00